SCOUT A R/B, 1865

Orbit data source: Space-Track

SCOUT A R/B, 1865 is space debris in LEO originally from a launch on Wed, 22 Dec 1965 UTC launched from the Air Force Western Test Range (AFWTR). Debris objects in space refer to the collection of defunct objects orbiting the Earth. Examples of debris include non-operational satellites, rocket bodies, and fragments generated from explosions, collisions, or faulty payload assembly.

Loading next visibility...
Identifier
1865, 1965-109B
Orbit
LEO
Last TLE update
23 hours ago
Origin
Manufacturer
ABL
Mission
Spacecraft
Bus & Motor
ALTAIR, Unknown motor
Mass
33 kg wet, 33 kg dry
Launch date (UTC)
1965-12-22 (59 years ago)
Launch vehicle
Unknown
Launch site
Air Force Western Test Range (AFWTR)
Object type
Payload
Rocket body
Debris
Shape & HBR
Cyl, 1.5 m
Radar Cross Section
0.687 m², Medium (>0.1 m² and < 1m²)

Expand to show TLE details & history

TLE from 23 hours ago
0 SCOUT A R/B
1 01865U 65109B   25128.42771120  .00000227  00000-0  20686-3 0  9999
2 01865  89.0612 289.0307 0113326 127.7853 233.3642 13.76724475977930
Epoch: 2025-05-08T10:15Z
Definitive object data (Epoch: 2025-05-08T10:15:54.247Z)
Latitude
-0.00001°
Longitude
-91.44369°
Altitude
1,028.861 km
Speed
7.312 km/s
True Right ascension
19h 16m 07s
True Declination
0° 00' 00"
Sunlit
Object was in daylight at TLE epoch
Visualization TLE readout
Latitude
61.37491°
Longitude
86.7489°
Altitude
903.227 km
Speed
7.448 km/s
Apparent Right ascension
06h 16m 57s
Apparent Declination
15° 34' 32"
Sunlit
Object is in daylight
Visualization observer readout
Local Sidereal Time
17:40:02
Azimuth
349.28° N
Elevation
-33.846°
Doppler factor
1
Orbital elements
Apogee altitude
1,055.843 km
Perigee altitude
889.238 km
Semi-major axis
7,350.677 km
Eccentricity
0.0113326
Inclination
89.0612°
RAAN
289.0307°
Arg. of periapsis
127.7853°
True anomaly
232.33092°
Mean anomaly
233.3642°
Eccentric anomaly
232.84669°
Mean motion
3.44391 °/min
BSTAR
0.00020686
Orbital period
104.53 mins
Loading maneuver chart data...
Loading SW <> Apogee altitude chart data...
Loading historical data...
Loading historical data...
Loading historical data...
Loading historical data...
Loading historical data...
Loading historical data...
Loading historical data...

SCOUT A R/B Visibility forecast

Observer location: undefined°, undefined°

Span
Click to sort rows by Start time (UTC) header in descending order
Start Az.
Max El. time (UTC)
Max El. Az.
Max El.
End time (UTC)
End Az.
12 mins2025-05-09 10:46:41.879Z166.439° S2025-05-09 10:52:41.879Z94.431° ESE42.591°2025-05-09 10:58:41.879Z4.943° NNE
5 mins2025-05-09 12:35:41.879Z257.77° W2025-05-09 12:37:41.879Z280.078° WNW16.273°2025-05-09 12:40:41.879Z313.115° NW
6 mins2025-05-09 21:46:41.879Z47.815° ENE2025-05-09 21:48:41.879Z74.067° E20.258°2025-05-09 21:52:41.879Z123.82° SE
9 mins2025-05-09 23:29:41.879Z343.802° N2025-05-09 23:33:41.879Z283.537° WNW35.889°2025-05-09 23:38:41.879Z207.933° SW
|